Tracking 19636 objects as of 25-May-2019
HD Live streaming from Space Station
objects crossing your sky now

HGS-1 (ASIASAT 3)

Track HGS-1 (ASIASAT 3) now!
HGS-1 (ASIASAT 3) is classified as:


NORAD ID: 25126
Int'l Code: 1997-086A
Perigee: 35,575.5 km
Apogee: 36,009.1 km
Inclination: 9.0 °
Period: 1,436.0 minutes
Semi major axis: 42163 km
RCS: 10.4313 m2 (large)
Launch date: December 24, 1997
Source: United States (US)
Launch site: TYURATAM MISSILE AND SPACE COMPLEX (TTMTR)
aabbcc
Your satellite tracking list
Your tracking list is empty




NASA's NSSDC Master Catalog

Two Line Element Set (TLE):
1 25126U 97086A   19145.11576868 -.00000250  00000-0  00000+0 0  9995
2 25126   8.9819  52.2525 0051422 342.3321 215.2798  1.00276839 79271
Source of the keplerian elements: AFSPC